Regional Weather Roundup
Issued by NWS Charleston, SC

Current Version | Previous Version | Graphics & Text | Print | Product List | Glossary On
Versions: 1 2 3 4 5 6 7 8 9 10 11 12 13 14 15 16 17 18 19 20 21 22 23 24 25 26 27 28 29 30 31 32 33 34 35 36 37 38 39 40 41 42 43 44 45 46 47 48 49 50
456
ASUS42 KCHS 231612
RWRCHS

REGIONAL WEATHER ROUNDUP
NATIONAL WEATHER SERVICE CHARLESTON SC
1200 PM EDT FRI JUN 23 2017

NOTE: "FAIR" INDICATES FEW OR NO CLOUDS BELOW 12,000 FEET WITH NO
SIGNIFICANT WEATHER AND/OR OBSTRUCTIONS TO VISIBILITY.

NOT ALL STATIONS ARE QUALITY CONTROLLED. USE DATA WITH CAUTION...
ESPECIALLY DEWPOINT OBSERVATIONS.

SCZ027-030-031-034>040-042>050-231700-
...SOUTHEAST SOUTH CAROLINA...

CITY           SKY/WX    TMP DP  RH WIND       PRES   REMARKS
N CHARLESTON   PTSUNNY   86  74  67 S16       30.04S HX  94
WATERFRONT PRK   N/A     83  76  79 SW9G16    30.04S HX  91
JOHNS ISLAND   CLOUDY    84  77  79 S15G21    30.05F HX  94
PINOPOLIS        N/A     84  79  84 SW6       29.98S HX  96
MONCKS CORNER  FAIR      84  75  74 SW9       30.04S HX  92
SUMMERVILLE    CLOUDY    84  75  74 SW3       30.05S HX  92
BEAUFORT MCAS  MOSUNNY   86  77  74 VRB6      30.04F HX  97
BEAUFORT ARPT  NOT AVBL
HILTON HEAD IS PTSUNNY   86  77  74 S16       30.06F HX  97
WALTERBORO     CLOUDY    86  77  74 S9        30.05S HX  97
ALLENDALE      FAIR      86  75  70 SW7       30.03F HX  95

...SOUTHERN MIDLANDS AND PEE DEE...

CITY           SKY/WX    TMP DP  RH WIND       PRES   REMARKS
GEORGETOWN     PTSUNNY   84  77  79 SW12      30.05F HX  94
KINGSTREE      CLOUDY    81  73  78 SW6       30.04S
ORANGEBURG     MOSUNNY   85  74  69 SW8       30.03F HX  92
BARNWELL       CLOUDY    90  75  62 S7G13     30.03F HX 100
AIKEN          FAIR      86  72  62 SW9       30.06F HX  92
MANNING        PTSUNNY   82  79  89 SW21G29   30.03F HX  93
COLUMBIA       PTSUNNY   90  72  55 SW7       30.01F HX  97
SUMTER         MOSUNNY   87  73  63 S8        30.00F HX  94
FLORENCE       PTSUNNY   85  75  72 SW7G17    30.02F HX  93
MYRTLE BEACH   PTSUNNY   84  75  74 SW9       30.05S HX  92
N MYRTLE BEACH CLOUDY    84  76  76 SW16      30.03F HX  93

$$

GAZ063-065-086>088-099>101-113>116-118-119-134>141-150-231700-
...SOUTHEAST GEORGIA...

CITY           SKY/WX    TMP DP  RH WIND       PRES   REMARKS
SAVANNAH ARPT  PTSUNNY   88  74  63 S6        30.04F HX  96
HUNTER AAF     CLOUDY    87  76  69 S8        30.02F HX  98
FORT STEWART   CLOUDY    88  75  66 S6        30.02F HX  97
STATESBORO     PTSUNNY   87  77  72 S5        30.04F HX  99
SYLVANIA       CLOUDY    87  79  76 SW5       30.05F HX 101
CLAXTON        PTSUNNY  N/A N/A N/A S5        30.04F

...CSRA...CENTRAL AND FAR SOUTHEAST GEORGIA...

CITY           SKY/WX    TMP DP  RH WIND       PRES   REMARKS
THOMSON        MOSUNNY   86  72  62 W8        30.08S HX  92
AUGUSTA-BUSH   SUNNY     91  72  53 SW12      30.01F HX  98
AUGUSTA-DANIEL SUNNY     89  67  47 SW9       30.03F HX  92
SWAINSBORO     FAIR      88  73  62 SW9       30.05S HX  96
VIDALIA        PTSUNNY   88  77  70 S7        30.05S HX 100
EASTMAN        FAIR      89  64  44 SW6       30.06F HX  90
HAZLEHURST     FAIR      89  77  68 W6        30.04S HX 101
ALMA           MOSUNNY   87  74  64 SW6       30.05S HX  95
WAYCROSS       MOSUNNY   89  80  75 SW7       30.05S HX 106
JESUP          FAIR      86  73  66 W7        30.05F HX  93
BAXLEY         FAIR      90  79  70 S7        30.04S HX 105
BRUNSWICK      CLOUDY    86  77  74 SW7       30.06F HX  97
SAINT SIMONS   CLOUDY    86  77  74 SE12      30.05F HX  97

$$

SCZ027-028-034-036>038-045-046-048>050-GAZ119-141-231700-
...LAKE AND SUPPLEMENTAL COASTAL OBSERVATIONS...

STATION/POSITION TIME  TEMP    WIND        PRES    WAVE   SWELL
                       AIR SEA DIR/SP/G            HT/PER HT/PER/DIR
                 (UTC) (F)     (DEG/KT/KT) (MB)    (FT/S) (FT/S/D)
WINYAH BAY       1445   83     220/ 12     1017.0
LAKE MURRAY      1520   83     190/  5/  7 1015.6F
ACE BASIN NERRS  1445   85     170/  1     1018.0
FORT PULASKI     1548   84 83  200/  8/ 13 1017.9F
SAPELO ISLAND    1500   85     210/  7     1018.0

$$

ANZ835-935-AMZ111-154-330-350-352-354-370-450-454-472-231700-
...C-MAN AND BUOY OBSERVATIONS...

STATION/POSITION TIME  TEMP    WIND        PRES    WAVE   SWELL
                       AIR SEA DIR/SP/G            HT/PER HT/PER/DIR
                 (UTC) (F)     (DEG/KT/KT) (MB)    (FT/S) (FT/S/D)
BUOY 41004       1550   81 81  220/ 16/ 19 1017.9F   4/ 8   2/130/ 8
BUOY 41008       1450   80 82  190/ 14/ 16 1017.9    4/ 9   2/120/ 9
FOLLY BEACH CMAN 1500   82     210/ 17/ 19 1018.5F
CAPERS NEARSHORE 1508   86 82  230/ 16/ 23 1017.6S
FRIPP NEARSHORE  1508   82 83  210/ 14/ 19 1017.7S


STATION/POSITION TIME  TEMP    WIND        PRES    WAVE   SWELL
                       AIR SEA DIR/SP/G            HT/PER HT/PER/DIR
                 (UTC) (F)     (DEG/KT/KT) (MB)    (FT/S) (FT/S/D)
5E ST. MARYS GA  1530      80                N/A     3/ 9
FRYING PAN BUOY  1550   81 81  220/ 16/ 17 1017.6F   4/ 8   3/130/ 8
BUOY 41025       1550   80 80  230/ 14/ 16 1016.5F   3/ 8   2/160/ 8
CAPE LOOKOUT NC  1600   82     220/ 12/ 14 1016.4F
BUOY 41002       1450   80 82  210/ 10/ 12 1019.8    4/ 9   3/100/ 9
BUOY 41010       1550   82 83  160/ 10/ 12 1019.0S   5/ 9   5/130/ 9
ST AUGUSTINE FL  1500   78 78  140/ 12/ 13 1019.2F


$$




USA.gov is the U.S. government's official web portal to all federal, state and local government web resources and services.